Location: Dalton Gardens
(47.7327°N, 116.7697°W)
Time: 21:37:46
(UTC+00:00)

BlueWalker 3 - Pass Details

Date: 08 December 2022
Orbit: 499 x 517 km, 53.2° (Epoch: 04 February)

Event Time Altitude Azimuth Distance (km) Brightness Sun altitude
Rises 01:39:27 0° 297° (WNW) 2,630 6.3 -16.7°
Reaches altitude 10° 01:41:41 10° 300° (WNW) 1,738 5.3 -17.1°
Maximum altitude 01:45:36 72° 25° (NNE) 540 1.9 -17.7°
Enters shadow 01:46:47 42° 97° (E) 734 2.3 -17.9°
Exits shadow 02:19:34 -61° 119° (ESE) 11,712 8.8 -23.3°
